Time,TemperatureF,DewpointF,PressureIn,WindDirection,WindDirectionDegrees,WindSpeedMPH,WindSpeedGustMPH,Humidity,HourlyPrecipIn,Conditions,Clouds,dailyrainin,SoftwareType,DateUTC
2013-05-06 00:02:00,44.0,37.0,30.40,NNE,13,0.0,1.0,75,0.00,,,0.00,,2013-05-06 04:02:00,
2013-05-06 00:12:00,44.0,37.0,30.40,NNE,13,0.0,1.0,75,0.00,,,0.00,,2013-05-06 04:12:00,
2013-05-06 00:23:00,43.0,36.0,30.40,NNE,13,0.0,1.0,77,0.00,,,0.00,,2013-05-06 04:23:00,
2013-05-06 00:32:00,42.0,36.0,30.40,NNE,13,0.0,1.0,78,0.00,,,0.00,,2013-05-06 04:32:00,
2013-05-06 00:43:00,42.0,36.0,30.40,NNE,13,0.0,1.0,78,0.00,,,0.00,,2013-05-06 04:43:00,
2013-05-06 00:52:00,42.0,36.0,30.40,NNE,13,0.0,0.0,80,0.00,,,0.00,,2013-05-06 04:52:00,
2013-05-06 01:02:00,41.0,36.0,30.40,SE,128,0.0,0.0,82,0.00,,,0.00,,2013-05-06 05:02:00,
2013-05-06 01:12:00,41.0,36.0,30.40,SE,128,0.0,0.0,82,0.00,,,0.00,,2013-05-06 05:12:00,
2013-05-06 01:22:00,40.0,35.0,30.40,SE,128,0.0,0.0,83,0.00,,,0.00,,2013-05-06 05:22:00,
2013-05-06 01:32:00,39.0,35.0,30.39,SE,128,0.0,0.0,85,0.00,,,0.00,,2013-05-06 05:32:00,
2013-05-06 01:42:00,39.0,35.0,30.39,SE,128,0.0,0.0,85,0.00,,,0.00,,2013-05-06 05:42:00,
2013-05-06 01:52:00,39.0,35.0,30.39,SE,128,0.0,0.0,86,0.00,,,0.00,,2013-05-06 05:52:00,
2013-05-06 02:02:00,38.0,34.0,30.39,SE,129,0.0,0.0,87,0.00,,,0.00,,2013-05-06 06:02:00,
2013-05-06 02:12:00,38.0,34.0,30.39,SE,129,0.0,0.0,87,0.00,,,0.00,,2013-05-06 06:12:00,
2013-05-06 02:21:00,38.0,35.0,30.39,SE,128,0.0,0.0,88,0.00,,,0.00,,2013-05-06 06:21:00,
2013-05-06 02:32:00,37.0,34.0,30.39,SE,129,0.0,0.0,88,0.00,,,0.00,,2013-05-06 06:32:00,
2013-05-06 02:42:00,37.0,34.0,30.39,SE,129,0.0,0.0,88,0.00,,,0.00,,2013-05-06 06:42:00,
2013-05-06 02:52:00,37.0,34.0,30.39,SE,128,0.0,0.0,89,0.00,,,0.00,,2013-05-06 06:52:00,
2013-05-06 03:01:00,36.0,33.0,30.38,SE,128,0.0,0.0,90,0.00,,,0.00,,2013-05-06 07:01:00,
2013-05-06 03:11:00,36.0,33.0,30.38,SE,128,0.0,0.0,90,0.00,,,0.00,,2013-05-06 07:11:00,
2013-05-06 03:22:00,36.0,34.0,30.38,SE,128,0.0,0.0,91,0.00,,,0.00,,2013-05-06 07:22:00,
2013-05-06 03:32:00,36.0,34.0,30.38,SE,129,0.0,0.0,91,0.00,,,0.00,,2013-05-06 07:32:00,
2013-05-06 03:42:00,36.0,34.0,30.38,SE,129,0.0,0.0,91,0.00,,,0.00,,2013-05-06 07:42:00,
2013-05-06 03:52:00,36.0,34.0,30.38,SE,128,0.0,0.0,92,0.00,,,0.00,,2013-05-06 07:52:00,
2013-05-06 04:02:00,35.0,33.0,30.38,SE,128,0.0,0.0,91,0.00,,,0.00,,2013-05-06 08:02:00,
2013-05-06 04:12:00,35.0,33.0,30.38,SE,128,0.0,0.0,91,0.00,,,0.00,,2013-05-06 08:12:00,
2013-05-06 04:22:00,35.0,33.0,30.38,SE,128,0.0,0.0,92,0.00,,,0.00,,2013-05-06 08:22:00,
2013-05-06 04:32:00,35.0,33.0,30.39,SE,128,0.0,0.0,92,0.00,,,0.00,,2013-05-06 08:32:00,
2013-05-06 04:42:00,35.0,33.0,30.39,SE,128,0.0,0.0,92,0.00,,,0.00,,2013-05-06 08:42:00,
2013-05-06 04:52:00,34.0,32.0,30.39,SE,129,0.0,0.0,92,0.00,,,0.00,,2013-05-06 08:52:00,
2013-05-06 05:02:00,34.0,32.0,30.39,SE,129,0.0,0.0,93,0.00,,,0.00,,2013-05-06 09:02:00,
2013-05-06 05:11:00,34.0,32.0,30.39,SE,129,0.0,0.0,93,0.00,,,0.00,,2013-05-06 09:11:00,
2013-05-06 05:22:00,34.0,32.0,30.39,SE,129,0.0,0.0,93,0.00,,,0.00,,2013-05-06 09:22:00,
2013-05-06 05:33:00,33.0,31.0,30.40,SE,129,0.0,0.0,93,0.00,,,0.00,,2013-05-06 09:33:00,
2013-05-06 05:43:00,33.0,31.0,30.40,SE,129,0.0,0.0,93,0.00,,,0.00,,2013-05-06 09:43:00,
2013-05-06 05:53:00,33.0,31.0,30.39,SE,129,0.0,-999.0,93,-99.99,,,-99.99,,2013-05-06 09:53:00,
2013-05-06 06:03:00,33.0,31.0,30.39,SE,129,0.0,0.0,93,0.00,,,0.00,,2013-05-06 10:03:00,
2013-05-06 06:12:00,33.0,31.0,30.39,SE,129,0.0,0.0,93,0.00,,,0.00,,2013-05-06 10:12:00,
2013-05-06 06:22:00,33.0,31.0,30.39,SE,129,0.0,0.0,94,0.00,,,0.00,,2013-05-06 10:22:00,
2013-05-06 06:33:00,33.0,31.0,30.40,SE,129,0.0,0.0,93,0.00,,,0.00,,2013-05-06 10:33:00,
2013-05-06 06:42:00,33.0,31.0,30.40,SE,129,0.0,0.0,93,0.00,,,0.00,,2013-05-06 10:42:00,
2013-05-06 06:52:00,33.0,31.0,30.40,SE,129,0.0,0.0,94,0.00,,,0.00,,2013-05-06 10:52:00,
2013-05-06 07:02:00,34.0,32.0,30.41,SE,128,0.0,0.0,93,0.00,,,0.00,,2013-05-06 11:02:00,
2013-05-06 07:12:00,34.0,32.0,30.41,SE,128,0.0,0.0,93,0.00,,,0.00,,2013-05-06 11:12:00,
2013-05-06 07:22:00,35.0,33.0,30.41,SE,128,0.0,0.0,93,0.00,,,0.00,,2013-05-06 11:22:00,
2013-05-06 07:32:00,36.0,34.0,30.41,SE,129,0.0,0.0,93,0.00,,,0.00,,2013-05-06 11:32:00,
2013-05-06 07:42:00,36.0,34.0,30.41,SE,129,0.0,0.0,93,0.00,,,0.00,,2013-05-06 11:42:00,
2013-05-06 07:52:00,38.0,36.0,30.41,SE,129,0.0,0.0,92,0.00,,,0.00,,2013-05-06 11:52:00,
2013-05-06 08:02:00,41.0,38.0,30.41,SE,128,0.0,0.0,88,0.00,,,0.00,,2013-05-06 12:02:00,
2013-05-06 08:12:00,41.0,38.0,30.41,SE,128,0.0,0.0,88,0.00,,,0.00,,2013-05-06 12:12:00,
2013-05-06 08:22:00,43.0,38.0,30.41,West,277,0.0,0.0,84,0.00,,,0.00,,2013-05-06 12:22:00,
2013-05-06 08:32:00,45.0,40.0,30.42,West,259,0.0,0.0,82,0.00,,,0.00,,2013-05-06 12:32:00,
2013-05-06 08:42:00,45.0,40.0,30.42,West,259,0.0,0.0,82,0.00,,,0.00,,2013-05-06 12:42:00,
2013-05-06 08:52:00,46.0,40.0,30.41,SW,221,0.0,0.0,79,0.00,,,0.00,,2013-05-06 12:52:00,
2013-05-06 09:01:00,48.0,41.0,30.42,SSW,207,0.0,2.0,77,0.00,,,0.00,,2013-05-06 13:01:00,
2013-05-06 09:11:00,48.0,41.0,30.42,SSW,207,0.0,2.0,77,0.00,,,0.00,,2013-05-06 13:11:00,
2013-05-06 09:21:00,50.0,42.0,30.42,WSW,242,0.0,2.0,73,0.00,,,0.00,,2013-05-06 13:21:00,
2013-05-06 09:32:00,51.0,42.0,30.42,SE,144,1.0,3.0,70,0.00,,,0.00,,2013-05-06 13:32:00,
2013-05-06 09:42:00,51.0,42.0,30.42,SE,144,1.0,3.0,70,0.00,,,0.00,,2013-05-06 13:42:00,
2013-05-06 09:52:00,53.0,42.0,30.42,WSW,243,0.0,2.0,67,0.00,,,0.00,,2013-05-06 13:52:00,
2013-05-06 10:02:00,55.0,42.0,30.42,WNW,284,2.0,3.0,62,0.00,,,0.00,,2013-05-06 14:02:00,
2013-05-06 10:11:00,55.0,42.0,30.42,WNW,284,2.0,3.0,62,0.00,,,0.00,,2013-05-06 14:11:00,
2013-05-06 10:21:00,56.0,43.0,30.41,SW,222,1.0,3.0,62,0.00,,,0.00,,2013-05-06 14:21:00,
2013-05-06 10:32:00,57.0,44.0,30.40,West,278,0.0,2.0,61,0.00,,,0.00,,2013-05-06 14:32:00,
2013-05-06 10:42:00,57.0,44.0,30.40,West,278,0.0,2.0,61,0.00,,,0.00,,2013-05-06 14:42:00,
2013-05-06 10:51:00,59.0,43.0,30.40,SSW,211,0.0,2.0,56,0.00,,,0.00,,2013-05-06 14:51:00,
2013-05-06 11:01:00,61.0,44.0,30.40,SW,228,2.0,5.0,53,0.00,,,0.00,,2013-05-06 15:01:00,
2013-05-06 11:11:00,61.0,44.0,30.40,SW,228,2.0,5.0,53,0.00,,,0.00,,2013-05-06 15:11:00,
2013-05-06 11:21:00,61.0,44.0,30.39,West,260,1.0,5.0,53,0.00,,,0.00,,2013-05-06 15:21:00,
2013-05-06 11:33:00,62.0,45.0,30.39,SW,217,1.0,4.0,53,0.00,,,0.00,,2013-05-06 15:33:00,
2013-05-06 11:42:00,62.0,45.0,30.39,SW,217,1.0,4.0,53,0.00,,,0.00,,2013-05-06 15:42:00,
2013-05-06 11:53:00,63.0,43.0,30.38,SW,214,2.0,3.0,48,0.00,,,0.00,,2013-05-06 15:53:00,
2013-05-06 12:03:00,65.0,44.0,30.37,SSE,162,0.0,3.0,46,0.00,,,0.00,,2013-05-06 16:03:00,
2013-05-06 12:13:00,65.0,44.0,30.37,SSE,162,0.0,3.0,46,0.00,,,0.00,,2013-05-06 16:13:00,
2013-05-06 12:23:00,66.0,40.0,30.37,West,276,2.0,5.0,39,0.00,,,0.00,,2013-05-06 16:23:00,
2013-05-06 12:33:00,67.0,39.0,30.36,SW,225,2.0,4.0,36,0.00,,,0.00,,2013-05-06 16:33:00,
2013-05-06 12:42:00,67.0,39.0,30.36,SW,225,2.0,4.0,36,0.00,,,0.00,,2013-05-06 16:42:00,
2013-05-06 12:52:00,67.0,37.0,30.35,ENE,72,1.0,3.0,33,0.00,,,0.00,,2013-05-06 16:52:00,
2013-05-06 13:03:00,69.0,38.0,30.35,South,176,0.0,4.0,32,0.00,,,0.00,,2013-05-06 17:03:00,
2013-05-06 13:12:00,69.0,38.0,30.35,South,176,0.0,4.0,32,0.00,,,0.00,,2013-05-06 17:12:00,
2013-05-06 13:23:00,69.0,35.0,30.34,West,277,3.0,5.0,28,0.00,,,0.00,,2013-05-06 17:23:00,
2013-05-06 13:31:00,70.0,33.0,30.34,SW,235,1.0,4.0,25,0.00,,,0.00,,2013-05-06 17:31:00,
2013-05-06 13:42:00,70.0,33.0,30.34,SW,235,1.0,4.0,25,0.00,,,0.00,,2013-05-06 17:42:00,
2013-05-06 13:52:00,71.0,29.0,30.33,SW,228,1.0,4.0,21,0.00,,,0.00,,2013-05-06 17:52:00,
2013-05-06 14:01:00,72.0,31.0,30.33,WSW,239,1.0,5.0,22,0.00,,,0.00,,2013-05-06 18:01:00,
2013-05-06 14:12:00,72.0,31.0,30.33,WSW,239,1.0,5.0,22,0.00,,,0.00,,2013-05-06 18:12:00,
2013-05-06 14:22:00,72.0,29.0,30.32,NNW,347,1.0,3.0,20,0.00,,,0.00,,2013-05-06 18:22:00,
2013-05-06 14:32:00,73.0,33.0,30.32,West,278,1.0,3.0,23,0.00,,,0.00,,2013-05-06 18:32:00,
2013-05-06 14:43:00,73.0,33.0,30.32,West,278,1.0,3.0,23,0.00,,,0.00,,2013-05-06 18:43:00,
2013-05-06 14:52:00,73.0,32.0,30.32,SW,232,2.0,4.0,22,0.00,,,0.00,,2013-05-06 18:52:00,
2013-05-06 15:01:00,73.0,28.0,30.31,West,270,2.0,5.0,19,0.00,,,0.00,,2013-05-06 19:01:00,
2013-05-06 15:11:00,73.0,28.0,30.31,West,270,2.0,5.0,19,0.00,,,0.00,,2013-05-06 19:11:00,
2013-05-06 15:22:00,73.0,28.0,30.30,West,265,1.0,5.0,19,0.00,,,0.00,,2013-05-06 19:22:00,
2013-05-06 15:32:00,74.0,26.0,30.29,WSW,238,2.0,3.0,17,0.00,,,0.00,,2013-05-06 19:32:00,
2013-05-06 15:42:00,74.0,26.0,30.29,WSW,238,2.0,3.0,17,0.00,,,0.00,,2013-05-06 19:42:00,
2013-05-06 15:52:00,74.0,23.0,30.29,WSW,246,3.0,5.0,15,0.00,,,0.00,,2013-05-06 19:52:00,
2013-05-06 16:02:00,73.0,19.0,30.28,West,263,2.0,3.0,13,0.00,,,0.00,,2013-05-06 20:02:00,
2013-05-06 16:11:00,73.0,19.0,30.28,West,263,2.0,3.0,13,0.00,,,0.00,,2013-05-06 20:11:00,
2013-05-06 16:21:00,73.0,19.0,30.28,SW,228,2.0,4.0,13,0.00,,,0.00,,2013-05-06 20:21:00,
2013-05-06 16:32:00,73.0,15.0,30.27,WSW,243,2.0,4.0,11,0.00,,,0.00,,2013-05-06 20:32:00,
2013-05-06 16:42:00,73.0,15.0,30.27,WSW,243,2.0,4.0,11,0.00,,,0.00,,2013-05-06 20:42:00,
2013-05-06 16:52:00,73.0,15.0,30.27,WSW,243,2.0,4.0,11,0.00,,,0.00,,2013-05-06 20:52:00,
2013-05-06 17:01:00,73.0,13.0,30.27,WSW,238,1.0,4.0,10,0.00,,,0.00,,2013-05-06 21:01:00,
2013-05-06 17:11:00,73.0,13.0,30.27,WSW,238,1.0,4.0,10,0.00,,,0.00,,2013-05-06 21:11:00,
2013-05-06 17:21:00,73.0,13.0,30.26,West,271,2.0,4.0,10,0.00,,,0.00,,2013-05-06 21:21:00,
2013-05-06 17:33:00,73.0,11.0,30.26,WSW,257,2.0,4.0,9,0.00,,,0.00,,2013-05-06 21:33:00,
2013-05-06 17:43:00,73.0,11.0,30.26,WSW,257,2.0,4.0,9,0.00,,,0.00,,2013-05-06 21:43:00,
2013-05-06 17:53:00,72.0,10.0,30.26,SW,228,0.0,3.0,9,0.00,,,0.00,,2013-05-06 21:53:00,
2013-05-06 18:03:00,72.0,15.0,30.26,NW,308,0.0,2.0,11,0.00,,,0.00,,2013-05-06 22:03:00,
2013-05-06 18:12:00,72.0,15.0,30.26,NW,308,0.0,2.0,11,0.00,,,0.00,,2013-05-06 22:12:00,
2013-05-06 18:22:00,71.0,14.0,30.26,West,263,0.0,4.0,11,0.00,,,0.00,,2013-05-06 22:22:00,
2013-05-06 18:33:00,70.0,13.0,30.25,WSW,253,0.0,2.0,11,0.00,,,0.00,,2013-05-06 22:33:00,
2013-05-06 18:45:00,70.0,13.0,30.25,WSW,253,0.0,2.0,11,0.00,,,0.00,,2013-05-06 22:45:00,
2013-05-06 18:52:00,70.0,17.0,30.25,SW,219,0.0,2.0,13,0.00,,,0.00,,2013-05-06 22:52:00,
2013-05-06 19:03:00,70.0,17.0,30.26,SW,236,1.0,2.0,13,0.00,,,0.00,,2013-05-06 23:03:00,
2013-05-06 19:12:00,70.0,17.0,30.26,SW,236,1.0,2.0,13,0.00,,,0.00,,2013-05-06 23:12:00,
2013-05-06 19:22:00,69.0,19.0,30.26,SW,222,0.0,1.0,15,0.00,,,0.00,,2013-05-06 23:22:00,
2013-05-06 19:32:00,68.0,22.0,30.26,SW,232,0.0,1.0,17,0.00,,,0.00,,2013-05-06 23:32:00,
2013-05-06 19:42:00,68.0,22.0,30.26,SW,232,0.0,1.0,17,0.00,,,0.00,,2013-05-06 23:42:00,
2013-05-06 19:52:00,66.0,27.0,30.26,SW,232,0.0,0.0,23,0.00,,,0.00,,2013-05-06 23:52:00,
2013-05-06 20:01:00,63.0,29.0,30.26,SW,232,0.0,1.0,27,0.00,,,0.00,,2013-05-07 00:01:00,
2013-05-06 20:12:00,63.0,29.0,30.26,SW,232,0.0,1.0,27,0.00,,,0.00,,2013-05-07 00:12:00,
2013-05-06 20:21:00,60.0,30.0,30.26,SW,232,0.0,1.0,32,0.00,,,0.00,,2013-05-07 00:21:00,
2013-05-06 20:32:00,58.0,33.0,30.26,SW,233,0.0,1.0,38,0.00,,,0.00,,2013-05-07 00:32:00,
2013-05-06 20:42:00,58.0,33.0,30.26,SW,233,0.0,1.0,38,0.00,,,0.00,,2013-05-07 00:42:00,
2013-05-06 20:52:00,57.0,34.0,30.27,SW,232,0.0,1.0,41,0.00,,,0.00,,2013-05-07 00:52:00,
2013-05-06 21:01:00,55.0,34.0,30.27,SW,232,0.0,1.0,45,0.00,,,0.00,,2013-05-07 01:01:00,
2013-05-06 21:11:00,55.0,34.0,30.27,SW,232,0.0,1.0,45,0.00,,,0.00,,2013-05-07 01:11:00,
2013-05-06 21:21:00,54.0,33.0,30.29,SE,142,0.0,1.0,45,0.00,,,0.00,,2013-05-07 01:21:00,
2013-05-06 21:32:00,52.0,33.0,30.29,SE,142,0.0,1.0,49,0.00,,,0.00,,2013-05-07 01:32:00,
2013-05-06 21:42:00,52.0,33.0,30.29,SE,142,0.0,1.0,49,0.00,,,0.00,,2013-05-07 01:42:00,
2013-05-06 21:53:00,52.0,34.0,30.30,SE,142,0.0,0.0,51,0.00,,,0.00,,2013-05-07 01:53:00,
2013-05-06 22:02:00,51.0,34.0,30.30,SE,141,0.0,0.0,53,0.00,,,0.00,,2013-05-07 02:02:00,
2013-05-06 22:11:00,51.0,34.0,30.30,SE,141,0.0,0.0,53,0.00,,,0.00,,2013-05-07 02:11:00,
2013-05-06 22:22:00,51.0,36.0,30.30,SE,141,0.0,1.0,57,0.00,,,0.00,,2013-05-07 02:22:00,
2013-05-06 22:32:00,50.0,36.0,30.31,SE,124,0.0,1.0,59,0.00,,,0.00,,2013-05-07 02:32:00,
2013-05-06 22:42:00,50.0,36.0,30.31,SE,124,0.0,1.0,59,0.00,,,0.00,,2013-05-07 02:42:00,
2013-05-06 22:52:00,50.0,36.0,30.31,SE,124,0.0,1.0,59,0.00,,,0.00,,2013-05-07 02:52:00,
2013-05-06 23:02:00,48.0,37.0,30.31,SE,124,0.0,0.0,65,0.00,,,0.00,,2013-05-07 03:02:00,
2013-05-06 23:11:00,48.0,37.0,30.31,SE,124,0.0,0.0,65,0.00,,,0.00,,2013-05-07 03:11:00,
2013-05-06 23:22:00,49.0,39.0,30.31,SE,124,0.0,1.0,67,0.00,,,0.00,,2013-05-07 03:22:00,
2013-05-06 23:32:00,48.0,38.0,30.31,SE,124,0.0,0.0,67,0.00,,,0.00,,2013-05-07 03:32:00,
2013-05-06 23:43:00,48.0,38.0,30.31,SE,124,0.0,0.0,67,0.00,,,0.00,,2013-05-07 03:43:00,
2013-05-06 23:53:00,48.0,40.0,30.31,SE,124,0.0,1.0,73,0.00,,,0.00,,2013-05-07 03:53:00,